Location: Le Hiès Ruisseau
(43.3000°N, 0.4500°W)
Time: 12:02:37
(UTC+00:00)

PSLV R/B - Pass Details

Date: 28 January 2023
Orbit: 492 x 557 km, 97.8° (Epoch: 19 March)

Event Time Altitude Azimuth Distance (km) Brightness Sun altitude
Rises 18:48:19 0° 170° (S) 2,556 7.2 -18.3°
Reaches altitude 10° 18:50:22 10° 172° (S) 1,680 6.3 -18.7°
Maximum altitude 18:53:58 75° 257° (WSW) 516 3.7 -19.3°
Drops below altitude 10° 18:57:38 10° 344° (NNW) 1,707 6.4 -20.0°
Sets 18:59:44 0° 346° (NNW) 2,603 7.4 -20.4°
